Avoca, PA

12:44 AM EDT on October 17, 2017 (GMT -0400)
Wilkes-Barre-Scranton International

Weather History for KAVP - November, 2013

Change the Weather History Date:

Thursday, November 28, 2013

  Actual Average Record
Temperature  
Mean Temperature 26 °F 37 °F  
Max Temperature 30 °F 44 °F 72 °F (1990)
Min Temperature 22 °F 30 °F 10 °F (1951)
Degree Days  
Heating Degree Days 39 28  
Month to date heating degree days 709 652  
Since 1 July heating degree days 1193 1255  
Cooling Degree Days 0 0  
Month to date cooling degree days 0 0  
Year to date cooling degree days 795 580  
Moisture  
Dew Point 13 °F    
Average Humidity 57    
Maximum Humidity 68    
Minimum Humidity 46    
Precipitation  
Precipitation T in 0.11 in 2.03 in (1993)
Month to date precipitation 2.74 2.92  
Year to date precipitation 24.23 35.36  
Sea Level Pressure  
Sea Level Pressure 30.24 in    
Wind  
Wind Speed 11 mph (WNW)    
Max Wind Speed 25 mph    
Max Gust Speed 40 mph    
Visibility 10 miles    
Events      
T = Trace of Precipitation, MM = Missing Value Source: NWS Daily Summary

Daily Weather History Graph

Daily Weather History Graph

Search for Another Location

Airport or City:

Trip Planner

Search our weather history database for the weather conditions in past years. The results will help you decide how hot, cold, wet, or windy it might be!

Date:

Astronomy

Nov. 28, 2013 Rise Set
Actual Time 7:06 AM EST 4:35 PM EST
Civil Twilight 6:35 AM EST 5:05 PM EST
Nautical Twilight 6:01 AM EST 5:40 PM EST
Astronomical Twilight 5:28 AM EST 6:13 PM EST
Moon 2:03 AM EST (11/28) 1:46 PM EST (11/28)
Length of Visible Light 10h 30m
Length of Day
9h 28m
Waning Crescent, 22% of the Moon is Illuminated
Nov 28
Waning Crescent
Dec 2
New
Dec 9
First Quarter
Dec 17
Full
Dec 25
Last Quarter

Hourly Weather History & Observations

Time (EST) Temp. Windchill Dew Point Humidity Pressure Visibility Wind Dir Wind Speed Gust Speed Precip Events Conditions
12:54 AM 26.1 °F 11.6 °F 14.0 °F 60% 29.87 in 10.0 mi NW 21.9 mph 32.2 mph N/A   Overcast
1:54 AM 26.1 °F 14.5 °F 15.1 °F 63% 29.90 in 10.0 mi WNW 13.8 mph 19.6 mph 0.00 in   Overcast
2:54 AM 25.0 °F 11.3 °F 14.0 °F 63% 29.95 in 10.0 mi WNW 18.4 mph 27.6 mph N/A   Overcast
3:54 AM 25.0 °F 14.2 °F 12.9 °F 60% 30.01 in 10.0 mi WNW 11.5 mph 27.6 mph N/A   Overcast
4:54 AM 24.1 °F 11.0 °F 10.0 °F 55% 30.07 in 10.0 mi West 16.1 mph 21.9 mph N/A   Scattered Clouds
5:54 AM 23.0 °F 10.6 °F 9.0 °F 55% 30.11 in 10.0 mi WNW 13.8 mph 19.6 mph N/A   Mostly Cloudy
6:54 AM 23.0 °F 10.6 °F 9.0 °F 55% 30.14 in 10.0 mi WNW 13.8 mph 21.9 mph N/A   Partly Cloudy
7:54 AM 23.0 °F 12.4 °F 10.0 °F 58% 30.20 in 10.0 mi NW 10.4 mph 26.5 mph N/A   Scattered Clouds
8:54 AM 23.0 °F 11.7 °F 12.0 °F 63% 30.25 in 10.0 mi NW 11.5 mph 21.9 mph N/A   Mostly Cloudy
9:54 AM 24.1 °F 12.5 °F 10.9 °F 57% 30.27 in 10.0 mi WNW 12.7 mph 24.2 mph N/A   Partly Cloudy
10:54 AM 26.1 °F 14.0 °F 12.0 °F 55% 30.28 in 10.0 mi NW 15.0 mph 21.9 mph N/A   Scattered Clouds
11:54 AM 26.1 °F 13.1 °F 10.9 °F 53% 30.29 in 10.0 mi WNW 17.3 mph 24.2 mph N/A   Partly Cloudy
12:54 PM 28.9 °F 18.6 °F 12.9 °F 51% 30.29 in 10.0 mi NNW 12.7 mph - N/A   Scattered Clouds
1:54 PM 28.9 °F 16.9 °F 12.0 °F 49% 30.29 in 10.0 mi WNW 17.3 mph 24.2 mph N/A   Mostly Cloudy
2:54 PM 28.9 °F 18.6 °F 10.9 °F 47% 30.31 in 10.0 mi NW 12.7 mph 19.6 mph N/A   Clear
3:54 PM 28.0 °F 19.3 °F 12.0 °F 51% 30.32 in 10.0 mi NNW 9.2 mph - N/A   Partly Cloudy
4:54 PM 26.1 °F 21.9 °F 12.0 °F 55% 30.35 in 10.0 mi North 3.5 mph - N/A   Partly Cloudy
5:54 PM 26.1 °F 21.9 °F 10.9 °F 53% 30.37 in 10.0 mi Variable 3.5 mph - N/A   Mostly Cloudy
6:54 PM 21.9 °F - 12.9 °F 68% 30.39 in 10.0 mi Calm Calm - N/A   Overcast
7:54 PM 26.1 °F - 17.1 °F 69% 30.40 in 10.0 mi Calm Calm - N/A   Overcast
8:54 PM 27.0 °F 18.7 °F 18.0 °F 69% 30.42 in 10.0 mi SW 8.1 mph - N/A   Overcast
9:54 PM 27.0 °F 19.5 °F 17.1 °F 66% 30.43 in 10.0 mi SW 6.9 mph - N/A   Overcast
10:54 PM 26.1 °F 20.5 °F 17.1 °F 69% 30.44 in 10.0 mi SW 4.6 mph - N/A   Overcast
11:54 PM 26.1 °F 20.5 °F 17.1 °F 69% 30.45 in 10.0 mi SSW 4.6 mph - N/A   Overcast